Terminal Aerodrome Forecast
Issued by NWS

Home | Current Version | Previous Version | Graphics & Text | Print | Product List | Glossary On
Versions: 1 2 3 4 5 6 7 8 9 10 11 12 13 14 15 16 17 18 19
000
FTUS43 KICT 241502 AAA
TAFCNU
TAF AMD
KCNU 241502Z 2415/2512 13012KT P6SM OVC035
     FM241700 18015KT P6SM BKN035
     FM242000 30016G23KT P6SM SCT040
     FM250100 VRB05KT P6SM SCT250=

USA.gov is the U.S. government's official web portal to all federal, state and local government web resources and services.